Location: Dillheim
(50.6074°N, 8.3711°E)
Time: 14:36:00
(UTC+00:00)

Daily predictions for brighter satellites

Satellite Brightness Start Highest point End
(mag) Time Altitude Azimuth Time Altitude Azimuth Time Altitude Azimuth
Cosmos 1812 Rocket 4.1 20:17:09 10° NNW 20:21:26 59° W 20:25:40 10° S
Cosmos 1703 3.5 20:17:47 10° S 20:21:33 52° E 20:25:20 10° NNE
COSMOS 2428 3.8 20:18:07 10° SSE 20:22:34 24° ESE 20:27:03 10° NE
Cosmos 1844 3.8 20:17:20 10° NNW 20:23:10 85° ENE 20:28:54 10° SSE
Cosmos 2322 4.2 20:20:57 10° S 20:26:16 41° ESE 20:31:35 10° NE
Cosmos 1602 Rocket 4.3 20:26:02 10° SSW 20:30:24 58° WNW 20:34:50 10° N
Cosmos 2263 Rocket 4.5 20:27:12 10° WNW 20:30:55 18° W 20:34:37 10° SW
Nadezhda 1 Rocket 4.4 20:25:35 10° NNW 20:31:57 69° W 20:38:18 10° S
Cosmos 1709 Rocket 4.2 20:27:01 10° S 20:33:10 60° E 20:39:27 10° NNE
Atlas Centaur 2 4.3 20:33:15 10° SSW 20:35:28 12° S 20:37:47 10° SSE
Terra 2.5 20:32:02 10° SE 20:36:30 42° ENE 20:40:59 10° N
Cosmos 2237 Rocket 4.0 20:34:09 10° ESE 20:36:36 13° E 20:39:05 10° ENE
CARTOSAT-1 3.8 20:33:21 10° SSE 20:37:35 60° ENE 20:41:51 10° N
Cosmos 2333 4.5 20:32:38 10° S 20:38:01 48° ESE 20:43:29 10° NE
Cosmos 2219 Rocket 2.9 20:33:30 10° S 20:38:29 34° ESE 20:43:30 10° NE
Cosmos 2360 Rocket 2.2 20:34:35 10° SSW 20:40:15 86° ESE 20:45:57 10° NNE
IGS 5A 3.7 20:36:39 10° S 20:40:47 69° WSW 20:44:57 10° NNW
Cosmos 2333 Rocket 2.6 20:42:51 10° S 20:48:12 44° ESE 20:53:36 10° NE
Cosmos 1315 Rocket 3.2 20:46:28 10° N 20:50:30 52° ENE 20:54:13 12° SSE
ATLAS 2AS CENTAUR R/B 3.7 20:43:04 10° NW 20:50:36 49° NNE 20:57:32 10° ESE
Resurs 01 Rocket 3.6 20:49:09 10° SSW 20:52:50 25° W 20:56:32 10° NW
Cosmos-2242 3.5 20:49:41 10° NNW 20:53:58 59° W 20:58:15 10° S
Cosmos 1818 3.6 20:50:03 10° SW 20:55:30 89° NW 21:01:00 10° NE
Cosmos 773 Rocket 4.0 20:52:59 10° S 20:58:14 67° ESE 21:03:31 10° NNE
Cosmos 2221 3.3 20:54:47 10° N 20:58:56 39° ENE 21:02:29 13° SE
SL-16 R/B 3.8 20:54:08 10° WSW 20:59:26 39° NW 21:04:46 10° NNE
ERS-1 Rocket 3.1 20:57:01 10° SSE 21:02:03 80° WSW 21:07:08 10° NNW
GEOS 3 Rocket 3.7 20:57:25 10° NE 21:02:51 77° SE 21:08:15 10° SW
USA 215 3.4 20:59:53 10° ENE 21:06:15 50° SE 21:12:34 10° SSW
Cosmos 2278 Rocket 2.6 21:02:30 10° NNW 21:08:07 57° NE 21:13:09 13° SE
Cosmos 1892 4.2 21:07:01 14° SE 21:09:13 21° E 21:12:08 10° NE
ATLAS 5 CENTAUR R/B 1.7 21:07:55 10° SW 21:12:08 78° NW 21:16:58 10° NE
Cosmos 1844 Rocket 3.8 21:07:38 10° NW 21:12:42 36° WSW 21:17:45 10° S
Meteor 1-11 4.2 21:07:14 10° S 21:12:51 88° E 21:18:35 10° NNE
Cosmos 1400 Rocket 4.2 21:09:38 10° NNW 21:13:17 34° W 21:16:50 10° SSW
Gblst 52 Del rocket 4.3 21:08:47 10° WNW 21:14:25 69° SSW 21:20:34 11° ESE
Cosmos 1943 Rocket 4.5 21:11:36 10° N 21:15:25 18° NNE 21:19:13 10° ENE
SPOT 5 3.2 21:13:56 11° S 21:18:48 66° WSW 21:23:35 10° NNW
Lacrosse 5 rocket 3.2 21:16:43 10° WNW 21:20:33 33° N 21:24:11 10° ENE
SL-16 R/B 4.2 21:19:58 10° ESE 21:21:02 11° E 21:22:06 10° E
USA 81 4.2 21:20:28 10° S 21:25:45 80° W 21:31:05 10° N
BREEZE M DEB (TANK) 3.6 21:25:54 10° WSW 21:27:20 15° SW 21:27:39 14° SSW
Cosmos 2058 3.7 21:25:00 17° SSE 21:27:36 35° E 21:31:23 10° NNE
Cosmos 2181 Rocket 4.3 21:21:49 10° NNW 21:28:07 66° W 21:34:15 10° S
Cosmos 1408 4.1 21:29:06 16° SE 21:30:40 21° E 21:33:27 10° NE
In-Cosmos 22 Rocket 4.4 21:29:55 16° SSE 21:33:58 49° E 21:39:05 10° NNE
TSX-5 3.6 21:31:27 10° NNW 21:34:52 79° ENE 21:37:36 19° SE
Cosmos 2074 Rocket 4.0 21:29:15 12° S 21:34:57 69° E 21:41:08 10° NNE
Cosmos 1076 Rocket 4.1 21:36:08 19° SSE 21:38:47 41° E 21:42:49 10° NNE
Cosmos 1680 Rocket 4.2 21:35:41 17° SSE 21:39:09 36° ESE 21:44:01 10° NE
USA 267 3.3 21:34:05 12° SE 21:40:13 79° SW 21:46:50 10° WNW
CZ-4C R/B 4.3 21:38:00 10° NW 21:43:47 33° NNE 21:50:30 10° E
Cosmos 2084 4.2 21:41:09 10° NW 21:45:22 43° SW 21:48:05 20° S
Cosmos 1842 Rocket 3.8 21:41:28 10° NNW 21:45:48 64° W 21:49:02 17° S
JB-3 4.2 21:43:22 10° NNE 21:47:14 75° ESE 21:49:57 18° S
COSMOS 2455 4.4 21:42:28 10° NNW 21:47:50 32° NE 21:53:11 10° E
Cosmos 2151 4.4 21:47:18 18° SE 21:49:21 25° E 21:52:51 10° NNE
MTI 3.6 21:48:08 10° NNE 21:51:14 86° WNW 21:53:10 21° SSW
Cosmos 923 Rocket 4.1 21:52:20 15° S 21:56:34 63° ESE 22:01:49 10° NNE
ATLAS CENTAUR R/B 2.4 21:53:31 10° WNW 21:56:42 27° WSW 21:58:26 19° SSW
Cosmos 1825 3.2 21:58:09 22° SE 21:59:43 31° E 22:03:06 10° NNE
Cosmos 2369 Rocket 4.2 21:55:44 10° NNW 22:00:06 23° NE 22:04:28 10° E
ALOS 2 3.7 21:58:03 16° ESE 22:00:55 34° ENE 22:04:54 10° N
Cosmos 1980 3.8 21:56:55 16° S 22:01:23 57° ESE 22:06:56 10° NE
COSMOS 2428 3.1 22:00:43 10° SW 22:06:21 67° WNW 22:12:03 10° NNE
Cosmos 1869 4.1 22:02:55 10° NNW 22:06:43 44° W 22:09:22 18° SSW
GP-B 4.3 22:05:13 10° NNE 22:09:08 29° E 22:11:23 19° SE
Cosmos 1624 Rocket 4.1 22:08:19 10° NNW 22:13:36 75° ENE 22:16:57 22° SSE
NOSS 0 Rocket 3.9 22:07:36 10° SSW 22:13:45 79° ESE 22:19:58 10° NNE
NOSS 3-4 (A) 3.8 22:07:07 10° NW 22:14:01 79° SW 22:19:46 19° SSE
NOSS 3-4 (C) 3.8 22:07:13 10° NW 22:14:08 80° SW 22:19:55 19° SE
Terra 3.3 22:10:34 12° SSW 22:14:23 29° W 22:18:32 10° NW
Cosmos 2237 Rocket 2.2 22:14:58 15° SSW 22:19:38 72° ESE 22:25:21 10° NNE
SL-4 R/B 3.1 22:19:54 12° ENE 22:20:09 12° ENE 22:21:06 10° NE
Genesis I 3.5 22:18:36 28° S 22:20:13 45° SE 22:23:57 10° NE
Cosmos 2344 3.7 22:16:02 14° SSW 22:22:17 52° ESE 22:30:02 10° NE
Cosmos 2219 Rocket 3.1 22:16:53 10° SW 22:22:17 48° NW 22:27:45 10° NNE
Elektron 1 4.4 22:21:21 20° SSW 22:23:32 64° SE 22:29:13 10° NE
NOSS 3-3 (A) 4.3 22:19:06 10° SW 22:25:05 69° NW 22:31:57 10° NE
NOSS 3-3 (C) 4.3 22:19:12 10° SW 22:25:11 69° NW 22:32:04 10° NE
DELTA 2 R/B (1) 4.5 22:25:22 10° SW 22:29:49 25° S 22:30:03 25° SSE
Thor Agena Rocket 3.5 22:24:44 10° NNE 22:29:54 84° ESE 22:33:18 21° SSW
Cosmos 2333 Rocket 3.5 22:27:10 10° WSW 22:32:32 41° NW 22:37:58 10° NNE
Cosmos 2221 4.3 22:32:44 10° NNW 22:36:18 25° W 22:39:20 13° SW
Iridium 2 4.2 22:36:52 10° NNW 22:40:36 52° W 22:42:26 26° SSW
BREEZE-M DEB (TANK) 1.6 22:37:32 10° W 22:41:09 46° SSW 22:41:22 45° S
Cosmos 1371 Rocket 4.2 22:36:07 10° NNW 22:41:19 61° WSW 22:44:15 26° S
ATLAS 2AS CENTAUR R/B 3.0 22:34:25 10° NW 22:41:54 62° SW 22:46:25 23° SSE
EO 1 Del DPAF 3.3 22:39:15 10° N 22:43:02 74° WNW 22:45:00 27° SSW
Cosmos 1892 4.0 22:41:59 15° SW 22:44:42 34° WNW 22:48:13 10° N
MOS 1-B Rocket 4.4 22:36:49 10° NNE 22:44:47 90° NW 22:49:56 19° SSW
Cosmos 1766 Rocket 3.7 22:44:24 30° SSE 22:46:25 60° E 22:50:46 10° NNE
Cosmos 1328 Rocket 3.7 22:44:02 10° N 22:48:21 66° ENE 22:50:25 29° SSE
Gbstr 26 Del rocket 4.5 22:49:28 17° ESE 22:49:28 17° ESE 22:51:21 10° E
Aureole 2 Rocket 1.8 22:45:39 10° NNW 22:48:28 76° WSW 22:48:59 54° S
Okean 3 Rocket 3.6 22:47:02 29° S 22:49:14 73° E 22:53:40 10° NNE
USA 215 3.5 22:42:57 10° ENE 22:49:30 74° NNW 22:56:02 10° WSW
Cosmos 1606 2.7 22:46:49 10° N 22:50:43 87° E 22:52:19 34° SSE
Cosmos 2278 Rocket 3.5 22:47:04 10° NW 22:51:53 29° WSW 22:54:59 18° SSW
Cosmos 2112 Rocket 4.2 22:48:23 16° SSW 22:52:39 73° WNW 22:58:03 10° NNE
Cosmos 2297 3.7 22:47:56 10° NNW 22:53:44 83° WSW 22:57:11 25° SSE
Cosmos 2218 Rocket 4.2 22:50:54 24° SSE 22:54:46 63° E 23:01:00 10° NNE
Cosmos 158 Rocket 4.2 22:52:56 15° SW 22:56:52 62° WNW 23:01:45 10° NNE
Cosmos 1420 Rocket 4.0 22:52:15 10° NNW 22:57:34 89° WSW 23:00:36 26° SSE
ATLAS 5 CENTAUR R/B 4.2 22:53:48 10° WNW 22:57:34 25° NNW 23:01:47 10° NE
Lacrosse 5 rocket 2.3 22:56:26 10° NW 23:00:22 45° NNE 23:04:05 10° E
Cosmos 1943 Rocket 2.6 22:54:44 10° NNW 23:00:23 61° NE 23:04:40 17° SE
Cosmos 2366 rocket 4.2 22:56:35 25° S 23:00:27 66° E 23:06:45 10° NNE
Cosmos 1633 3.8 23:01:11 24° ESE 23:02:14 28° E 23:05:24 10° NNE
SL-16 R/B 2.3 23:00:47 26° S 23:03:59 62° ESE 23:09:37 10° NE
Cosmos 2056 Rocket 4.1 23:00:01 10° NW 23:05:11 47° WSW 23:07:58 25° SSW
Cosmos 1408 4.0 23:03:24 17° SW 23:05:31 30° WNW 23:08:45 10° N
Cosmos 1959 Rocket 4.5 23:06:20 25° S 23:10:03 78° E 23:16:17 10° NNE
YAOGAN 11 4.3 23:09:09 27° SE 23:11:25 65° ENE 23:15:49 10° N
Cosmos 1743 Rocket 4.4 23:12:36 25° SE 23:14:24 37° E 23:18:25 10° NNE
Cosmos 2341 Rocket 4.3 23:11:47 20° SSW 23:16:09 64° WNW 23:22:21 10° N
Cosmos 332 Rocket 3.7 23:14:07 10° NNW 23:18:57 89° WSW 23:21:28 28° SSE
USA 267 4.2 23:21:24 22° SSW 23:23:54 28° SW 23:29:26 10° WNW
Meteor 2-3 Rocket 3.7 23:21:02 27° S 23:24:13 78° E 23:29:57 10° NNE
IRIDIUM 104 4.5 23:23:26 26° SSW 23:26:22 68° W 23:31:36 10° N
Cosmos 2151 4.1 23:23:52 19° SW 23:26:29 37° WNW 23:30:29 10° N
Helios 1A 2.9 23:24:53 34° S 23:26:39 75° WSW 23:30:51 10° NNW
Cosmos 405 3.1 23:24:21 10° N 23:27:54 69° ENE 23:29:08 37° SSE
Meteor 1-26 Rocket 4.4 23:25:54 10° NNW 23:31:55 73° W 23:35:20 27° S
Cosmos 1452 Rocket 3.5 23:27:05 10° NNW 23:32:21 70° WSW 23:35:06 28° S
CZ-4C R/B 3.2 23:26:34 10° NW 23:33:29 70° NE 23:41:34 10° SE
COSMOS 2455 2.8 23:28:19 10° NW 23:34:24 78° SW 23:38:24 22° SSE
PSLV R/B 4.2 23:30:49 10° NNE 23:34:51 42° E 23:36:34 28° SSE
SL-8 Rocket 4.3 23:30:59 21° SSW 23:35:07 61° WNW 23:41:14 10° N
Cosmos 1825 4.0 23:32:56 14° WSW 23:35:16 24° WNW 23:38:24 10° NNW
Cosmos 1340 2.8 23:34:23 34° SSW 23:35:52 67° WNW 23:39:38 10° N
Cosmos 1110 Rocket 4.4 23:31:03 10° NNW 23:36:17 60° ENE 23:40:16 17° SE
Cosmos 1933 4.1 23:32:56 10° NNW 23:36:42 40° W 23:38:13 28° SW
ALOS 2 3.8 23:35:27 22° SW 23:37:16 31° W 23:41:12 10° NNW
Cosmos 1408 Rocket 3.6 23:35:56 30° SSW 23:38:01 71° W 23:42:27 10° N
Cosmos 1151 Rocket 3.9 23:34:12 10° NNW 23:38:14 38° W 23:40:03 26° SW
SL-16 R/B 4.1 23:33:42 10° ESE 23:38:59 30° ENE 23:44:17 10° N
Cosmos 1727 Rocket 4.1 23:38:08 10° NNW 23:44:19 70° W 23:48:04 25° S
APEX 3.2 23:42:00 10° NW 23:44:22 35° WSW 23:44:22 35° WSW
Cosmos 2369 Rocket 2.2 23:39:19 10° NNW 23:44:57 87° ENE 23:48:49 21° SSE
Resurs 1-4 Rocket 4.3 23:41:50 10° NE 23:44:58 16° E 23:48:04 10° ESE
GP-B 4.3 23:42:28 10° NNW 23:46:28 34° W 23:48:50 20° SW
Cosmos 44 3.2 23:43:37 20° SW 23:46:32 70° NW 23:51:01 10° NE
Cosmos 1500 Rocket 3.6 23:44:49 32° S 23:46:48 75° E 23:51:12 10° NNE
SL-4 R/B 3.0 23:48:59 14° WNW 23:48:59 14° WNW 23:49:43 10° NW
Cosmos 371 Rocket 4.1 23:44:00 10° NW 23:48:29 38° WSW 23:50:25 27° SSW
SeaSat 1 4.3 23:45:46 10° ENE 23:49:11 18° ESE 23:51:20 14° SE
ISS -1.2 23:51:01 10° ESE 23:51:01 10° ESE 23:51:09 10° ESE
Helios 1B rocket 2.8 23:49:36 10° NNE 23:53:40 54° E 23:55:23 31° SSE
CREW DRAGON DEMO-1 DEB 2.7 23:54:49 22° WSW 23:56:39 90° NNW 23:59:44 10° ENE
